TimeMDT,TemperatureF,Dew PointF,Humidity,Sea Level PressureIn,VisibilityMPH,Wind Direction,Wind SpeedMPH,Gust SpeedMPH,PrecipitationIn,Events,Conditions,WindDirDegrees,DateUTC
12:53 AM,60.1,51.1,72,29.78,10.0,Calm,Calm,-,N/A,,Partly Cloudy,0,2013-07-05 06:53:00
1:53 AM,63.0,52.0,67,29.75,10.0,East,4.6,-,N/A,,Clear,90,2013-07-05 07:53:00
2:53 AM,64.9,48.9,56,29.73,10.0,Calm,Calm,-,N/A,,Clear,0,2013-07-05 08:53:00
3:53 AM,59.0,48.0,67,29.72,10.0,Calm,Calm,-,N/A,,Clear,0,2013-07-05 09:53:00
4:53 AM,62.1,52.0,70,29.74,10.0,NW,9.2,26.5,N/A,,Clear,320,2013-07-05 10:53:00
5:53 AM,63.0,52.0,67,29.74,10.0,North,5.8,-,N/A,,Clear,10,2013-07-05 11:53:00
6:53 AM,64.9,53.1,65,29.73,10.0,NNE,9.2,-,N/A,,Clear,30,2013-07-05 12:53:00
7:53 AM,69.1,51.1,53,29.73,10.0,NE,9.2,-,N/A,,Clear,40,2013-07-05 13:53:00
8:53 AM,73.0,51.1,46,29.75,10.0,NNE,9.2,-,N/A,,Clear,20,2013-07-05 14:53:00
9:53 AM,75.0,50.0,41,29.75,10.0,ENE,3.5,-,N/A,,Clear,70,2013-07-05 15:53:00
10:53 AM,78.1,50.0,37,29.74,10.0,Variable,4.6,-,N/A,,Clear,0,2013-07-05 16:53:00
11:53 AM,80.1,51.1,36,29.73,10.0,East,5.8,-,N/A,,Mostly Cloudy,90,2013-07-05 17:53:00
12:53 PM,87.1,50.0,28,29.71,10.0,East,10.4,-,N/A,,Partly Cloudy,100,2013-07-05 18:53:00
1:53 PM,91.0,50.0,24,29.69,10.0,SE,11.5,-,N/A,,Clear,130,2013-07-05 19:53:00
2:53 PM,93.9,46.0,19,29.65,10.0,SSE,9.2,-,N/A,,Clear,160,2013-07-05 20:53:00
3:53 PM,93.0,45.0,19,29.65,10.0,SE,4.6,17.3,N/A,,Clear,130,2013-07-05 21:53:00
4:53 PM,93.9,44.1,18,29.63,10.0,SW,6.9,-,N/A,,Scattered Clouds,230,2013-07-05 22:53:00
5:53 PM,91.9,45.0,20,29.64,10.0,WSW,11.5,-,N/A,,Clear,240,2013-07-05 23:53:00
6:53 PM,89.1,46.9,23,29.65,10.0,WNW,9.2,-,N/A,,Clear,300,2013-07-06 00:53:00
7:08 PM,82.4,51.8,35,29.84,5.0,NW,21.9,29.9,N/A,,Haze,310,2013-07-06 01:08:00
7:53 PM,80.1,53.1,39,29.68,10.0,NW,15.0,-,N/A,,Clear,320,2013-07-06 01:53:00
8:53 PM,73.9,55.0,52,29.68,10.0,WNW,8.1,-,N/A,,Clear,300,2013-07-06 02:53:00
9:53 PM,71.1,55.0,57,29.70,10.0,Calm,Calm,-,N/A,,Clear,0,2013-07-06 03:53:00
10:53 PM,66.9,55.0,66,29.69,10.0,West,8.1,-,N/A,,Clear,270,2013-07-06 04:53:00
11:53 PM,62.1,53.1,72,29.70,10.0,SW,8.1,-,N/A,,Clear,220,2013-07-06 05:53:00